| time (UTC) | temp C | wind direction | speed KPH | gust KPH | rain 1hr cm | rain 24hr cm | rain mn cm | humidity % | barometer mb |
| 20260505221530 | 14 | 254 | 1.6 | 4.8 | 0.03 | 0.20 | 0.20 | 91 | 1007.6 |
| 20260505220032 | 15 | 246 | 3.2 | 6.4 | 0.05 | 0.20 | 0.20 | 92 | 1007.5 |
| 20260505214533 | 15 | 298 | 3.2 | 9.7 | 0.08 | 0.20 | 0.20 | 93 | 1007.9 |
| 20260505213030 | 14 | 279 | 0.0 | 4.8 | 0.15 | 0.20 | 0.20 | 94 | 1007.8 |
| 20260505211529 | 13 | 212 | 1.6 | 6.4 | 0.18 | 0.18 | 0.18 | 93 | 1007.7 |
| 20260505210033 | 13 | 121 | 8.0 | 12.9 | 0.15 | 0.15 | 0.15 | 92 | 1008.7 |
| 20260505204530 | 13 | 48 | 4.8 | 16.1 | 0.13 | 0.13 | 0.13 | 91 | 1008.3 |
| 20260505203028 | 15 | 129 | 16.1 | 24.1 | 0.05 | 0.05 | 0.05 | 79 | 1007.5 |
| 20260505201533 | 21 | 316 | 6.4 | 24.1 | 0.00 | 0.00 | 0.00 | 44 | 1006.4 |
| 20260505200034 | 22 | 45 | 6.4 | 22.5 | 0.00 | 0.00 | 0.00 | 42 | 1006.2 |
| 20260505194532 | 23 | 67 | 4.8 | 19.3 | 0.00 | 0.00 | 0.00 | 40 | 1006.0 |
| 20260505193032 | 23 | 50 | 8.0 | 22.5 | 0.00 | 0.00 | 0.00 | 39 | 1006.4 |
| 20260505191533 | 23 | 9 | 6.4 | 17.7 | 0.00 | 0.00 | 0.00 | 39 | 1006.1 |
| 20260505190036 | 24 | 71 | 6.4 | 20.9 | 0.00 | 0.00 | 0.00 | 38 | 1006.5 |
| 20260505184533 | 24 | 43 | 8.0 | 19.3 | 0.00 | 0.00 | 0.00 | 37 | 1006.9 |
| 20260505183037 | 24 | 30 | 9.7 | 20.9 | 0.00 | 0.00 | 0.00 | 37 | 1006.8 |
| 20260505181532 | 24 | 65 | 6.4 | 22.5 | 0.00 | 0.00 | 0.00 | 37 | 1007.2 |
| 20260505180045 | 23 | 38 | 6.4 | 29.0 | 0.00 | 0.00 | 0.00 | 39 | 1007.1 |
| 20260505174538 | 23 | 239 | 4.8 | 19.3 | 0.00 | 0.00 | 0.00 | 38 | 1007.5 |
| 20260505173031 | 23 | 59 | 9.7 | 24.1 | 0.00 | 0.00 | 0.00 | 38 | 1007.4 |
| 20260505171533 | 23 | 41 | 6.4 | 20.9 | 0.00 | 0.00 | 0.00 | 41 | 1007.3 |
| 20260505170030 | 23 | 40 | 9.7 | 30.6 | 0.00 | 0.00 | 0.00 | 40 | 1007.4 |
| 20260505164529 | 23 | 70 | 9.7 | 32.2 | 0.00 | 0.00 | 0.00 | 40 | 1007.6 |
| 20260505163033 | 23 | 66 | 6.4 | 29.0 | 0.00 | 0.00 | 0.00 | 44 | 1007.7 |
| 20260505161533 | 23 | 347 | 6.4 | 20.9 | 0.00 | 0.00 | 0.00 | 45 | 1008.0 |
| 20260505153030 | 22 | 110 | 6.4 | 20.9 | 0.00 | 0.00 | 0.00 | 46 | 1008.5 |
| 20260505151532 | 22 | 93 | 6.4 | 20.9 | 0.00 | 0.00 | 0.00 | 47 | 1008.3 |
| 20260505124536 | 16 | 57 | 4.8 | 12.9 | 0.00 | 0.00 | 0.00 | 61 | 1008.8 |
| 20260505123036 | 16 | 22 | 3.2 | 12.9 | 0.00 | 0.00 | 0.00 | 61 | 1009.3 |
| 20260505121530 | 16 | 47 | 4.8 | 19.3 | 0.00 | 0.00 | 0.00 | 61 | 1009.3 |
| 20260505120030 | 15 | 48 | 3.2 | 14.5 | 0.00 | 0.00 | 0.00 | 63 | 1009.1 |
| 20260505114532 | 15 | 78 | 3.2 | 17.7 | 0.00 | 0.00 | 0.00 | 65 | 1009.0 |
| 20260505113041 | 14 | 221 | 3.2 | 8.0 | 0.00 | 0.00 | 0.00 | 66 | 1008.9 |
| 20260505111533 | 13 | 0 | 1.6 | 8.0 | 0.00 | 0.00 | 0.00 | 67 | 1009.1 |
| 20260505101549 | 13 | 88 | 3.2 | 12.9 | 0.00 | 0.00 | 0.00 | 67 | 1008.4 |
| 20260505100055 | 13 | 111 | 4.8 | 17.7 | 0.00 | 0.00 | 0.00 | 68 | 1008.1 |
| 20260505094534 | 13 | 344 | 1.6 | 19.3 | 0.00 | 0.00 | 0.00 | 67 | 1007.9 |
| 20260505093031 | 13 | 32 | 3.2 | 11.3 | 0.00 | 0.00 | 0.00 | 67 | 1007.8 |
| 20260505091530 | 12 | 137 | 3.2 | 11.3 | 0.00 | 0.00 | 0.00 | 66 | 1007.9 |
| 20260505090029 | 12 | 334 | 3.2 | 12.9 | 0.00 | 0.00 | 0.00 | 66 | 1007.6 |
| 20260505084535 | 12 | 36 | 1.6 | 6.4 | 0.00 | 0.00 | 0.00 | 67 | 1007.7 |
| 20260505083031 | 12 | 325 | 1.6 | 9.7 | 0.00 | 0.00 | 0.00 | 66 | 1007.8 |
| 20260505081529 | 12 | 9 | 1.6 | 6.4 | 0.00 | 0.00 | 0.00 | 65 | 1007.9 |
| 20260505080029 | 12 | 309 | 1.6 | 9.7 | 0.00 | 0.00 | 0.00 | 64 | 1007.8 |
| 20260505074529 | 13 | 0 | 1.6 | 6.4 | 0.00 | 0.00 | 0.00 | 63 | 1007.9 |
| 20260505073036 | 13 | 57 | 3.2 | 9.7 | 0.00 | 0.00 | 0.00 | 61 | 1008.1 |
| 20260505071531 | 13 | 44 | 1.6 | 8.0 | 0.00 | 0.00 | 0.00 | 61 | 1008.1 |
| 20260505070030 | 13 | 0 | 4.8 | 17.7 | 0.00 | 0.00 | 0.00 | 60 | 1008.1 |
| 20260505064527 | 13 | 83 | 3.2 | 16.1 | 0.00 | 0.00 | 0.00 | 60 | 1008.2 |
| 20260505063027 | 13 | 51 | 3.2 | 12.9 | 0.00 | 0.00 | 0.00 | 59 | 1008.0 |
| 20260505061538 | 13 | 76 | 3.2 | 14.5 | 0.00 | 0.00 | 0.00 | 60 | 1008.0 |
| 20260505060031 | 13 | 38 | 4.8 | 16.1 | 0.00 | 0.00 | 0.00 | 60 | 1008.0 |
| 20260505054529 | 12 | 41 | 3.2 | 12.9 | 0.00 | 0.00 | 0.00 | 60 | 1008.1 |
| 20260505053038 | 12 | 34 | 3.2 | 8.0 | 0.00 | 0.00 | 0.00 | 60 | 1008.2 |
| 20260505051539 | 12 | 41 | 3.2 | 12.9 | 0.00 | 0.00 | 0.00 | 60 | 1008.7 |
| 20260505041530 | 12 | 73 | 3.2 | 9.7 | 0.00 | 0.00 | 0.00 | 59 | 1008.2 |
| 20260505040034 | 13 | 300 | 3.2 | 8.0 | 0.00 | 0.00 | 0.00 | 58 | 1008.2 |
| 20260505034529 | 13 | 304 | 1.6 | 9.7 | 0.00 | 0.00 | 0.00 | 57 | 1008.3 |
| 20260505033033 | 13 | 266 | 1.6 | 6.4 | 0.00 | 0.00 | 0.00 | 56 | 1008.2 |
| 20260505031538 | 14 | 309 | 3.2 | 11.3 | 0.00 | 0.00 | 0.00 | 54 | 1008.0 |
| 20260505030030 | 15 | 298 | 3.2 | 11.3 | 0.00 | 0.00 | 0.00 | 53 | 1008.3 |
| 20260505024532 | 15 | 9 | 3.2 | 17.7 | 0.00 | 0.00 | 0.00 | 51 | 1008.2 |
| 20260505023033 | 15 | 341 | 4.8 | 20.9 | 0.00 | 0.00 | 0.00 | 51 | 1008.3 |
| 20260505021536 | 15 | 63 | 3.2 | 12.9 | 0.00 | 0.00 | 0.00 | 51 | 1008.6 |
| 20260505020037 | 15 | 9 | 3.2 | 14.5 | 0.00 | 0.00 | 0.00 | 50 | 1008.3 |
| 20260505014530 | 15 | 344 | 8.0 | 24.1 | 0.00 | 0.00 | 0.00 | 49 | 1008.2 |
| 20260505013031 | 15 | 9 | 4.8 | 16.1 | 0.00 | 0.00 | 0.00 | 48 | 1008.4 |
| 20260505011536 | 16 | 27 | 4.8 | 16.1 | 0.00 | 0.00 | 0.00 | 47 | 1008.0 |
| 20260505010057 | 16 | 325 | 3.2 | 14.5 | 0.00 | 0.00 | 0.00 | 47 | 1007.9 |
| 20260505004530 | 16 | 44 | 4.8 | 14.5 | 0.00 | 0.00 | 0.00 | 47 | 1007.9 |
| 20260505003037 | 16 | 85 | 3.2 | 14.5 | 0.00 | 0.00 | 0.00 | 46 | 1007.6 |
| 20260505001530 | 16 | 9 | 3.2 | 14.5 | 0.00 | 0.00 | 0.00 | 44 | 1007.6 |
| 20260505000043 | 17 | 47 | 3.2 | 12.9 | 0.00 | 0.00 | 0.00 | 44 | 1007.4 |
| 20260504234534 | 17 | 0 | 3.2 | 14.5 | 0.00 | 0.00 | 0.00 | 43 | 1007.2 |
| 20260504233033 | 18 | 0 | 3.2 | 12.9 | 0.00 | 0.00 | 0.00 | 42 | 1007.4 |
| 20260504231532 | 18 | 65 | 4.8 | 11.3 | 0.00 | 0.00 | 0.00 | 39 | 1007.2 |
| 20260504230040 | 18 | 51 | 3.2 | 12.9 | 0.00 | 0.00 | 0.00 | 39 | 1007.1 |
| 20260504224529 | 19 | 221 | 3.2 | 11.3 | 0.00 | 0.00 | 0.00 | 38 | 1007.0 |
| 20260504223035 | 20 | 31 | 3.2 | 12.9 | 0.00 | 0.00 | 0.00 | 36 | 1006.5 |